Location: Sinnemahoning State Park
(41.4031°N, 78.0230°W)
Time: 23:03:11
(UTC-05:00)

Daily predictions for brighter satellites

Satellite Brightness Start Highest point End
(mag) Time Altitude Azimuth Time Altitude Azimuth Time Altitude Azimuth
Aureole 3 4.3 17:07:29 10° N 17:12:21 86° W 17:18:32 10° S
COSMOS 2406 3.9 17:09:43 10° NNW 17:15:23 61° WSW 17:20:58 10° S
Meteor 2-12 Rocket 4.4 17:09:57 10° S 17:16:02 79° E 17:22:07 10° N
ERBS 3.0 17:14:02 10° NW 17:17:24 59° SW 17:20:45 10° SSE
MSX 4.1 17:11:46 10° S 17:17:32 77° WSW 17:23:21 10° NNW
COSMO-SKYMED 1 4.1 17:15:54 10° NE 17:18:47 17° E 17:21:40 10° SE
YAOGAN 1 3.5 17:15:16 10° SE 17:18:50 26° ENE 17:22:25 10° NNE
CSL-04 Debris 4.2 17:16:10 10° SSE 17:21:30 63° ENE 17:26:52 10° N
Cosmos 2346 Rocket 4.5 17:21:31 10° N 17:27:39 71° E 17:33:50 10° SSE
BREEZE-M DEB (TANK) 2.8 17:26:00 10° SSW 17:27:55 29° SE 17:29:58 11° ENE
Cosmos 1833 Rocket 3.3 17:23:47 10° N 17:28:53 34° ENE 17:33:58 10° ESE
Tsikada Rocket 4.2 17:24:45 10° N 17:30:56 79° W 17:37:06 10° S
USA 161 3.8 17:33:26 10° NW 17:34:38 14° WNW 17:35:53 10° WSW
Meteor 1-14 Rocket 4.2 17:29:20 10° N 17:35:01 72° E 17:40:33 10° SSE
Cosmos 2297 4.3 17:30:48 10° S 17:35:58 36° ESE 17:41:10 10° NE
Cosmos 2221 Rocket 4.4 17:35:18 10° SSE 17:39:07 29° E 17:42:56 10° NNE
Cosmos 2278 Rocket 2.3 17:33:38 10° SSW 17:39:18 87° WNW 17:45:02 10° NNE
Cosmos 1703 Rocket 3.8 17:35:22 10° SSE 17:39:40 48° E 17:43:57 10° NNE
CORIOLIS 4.1 17:35:22 10° SSE 17:40:47 72° ENE 17:46:14 10° N
CZ-2C R/B 4.2 17:37:06 10° SSW 17:41:43 38° W 17:46:29 10° NNW
Cosmos 1763 Rocket 3.9 17:44:33 10° NNW 17:49:43 66° WSW 17:54:46 10° S
IRS-1A Rocket 4.3 17:44:35 10° SSE 17:50:21 70° ENE 17:56:02 10° N
Meteor 1-28 Rocket 3.1 17:49:51 10° NNE 17:53:35 88° ESE 17:57:17 10° SSW
Cosmos 44 Rocket 3.9 17:50:06 10° NNW 17:54:34 35° NE 17:58:41 12° ESE
CZ-2C R/B 3.6 17:50:37 10° NNE 17:55:08 78° ESE 17:59:41 10° S
Okean 2 Rocket 3.7 17:52:19 10° N 17:56:29 35° ENE 18:00:37 10° SE
Cosmos 1606 2.5 17:56:33 10° S 18:00:18 72° E 18:04:05 10° NNE
Cosmos 1441 Rocket 4.2 17:57:34 10° SSE 18:00:54 26° E 18:01:48 24° ENE
Cosmos 292 Rocket 4.2 17:57:44 10° N 18:02:09 37° ENE 18:06:32 10° SE
Cosmos 1464 Rocket 4.0 17:58:22 10° S 18:04:19 57° E 18:10:20 10° NNE
Cosmos 405 3.8 18:01:11 10° NNE 18:04:21 28° ENE 18:07:28 10° SE
Cosmos 1908 Rocket 3.9 18:00:31 10° NNW 18:04:50 68° W 18:09:07 10° S
Lacrosse 5 4.0 18:03:01 10° NW 18:05:42 14° N 18:08:23 10° NNE
Landsat 4 3.6 18:02:03 10° NNE 18:05:50 86° ESE 18:09:39 10° SSW
SKYMED 2 3.6 18:02:49 10° NNE 18:07:06 56° E 18:11:22 10° S
COSMOS 2455 4.2 18:01:46 10° WSW 18:07:16 36° NW 18:12:49 10° NNE
Cosmos 1484 Rocket 4.1 18:03:38 10° S 18:07:18 42° W 18:11:03 10° NNW
CZ-4 R/B 1.9 18:05:09 10° S 18:08:58 59° W 18:12:46 10° NNW
MTI 3.6 18:07:22 13° NNE 18:10:12 81° E 18:13:26 10° S
SL-27 R/B 3.0 18:07:52 10° NNW 18:11:09 56° WSW 18:14:27 10° S
MOS 1 4.2 18:05:49 10° SSE 18:11:29 69° ENE 18:17:10 10° N
EO 1 Del DPAF 3.2 18:08:14 13° NNE 18:11:31 59° ESE 18:15:16 10° S
Cosmos 540 Rocket 3.3 18:08:10 10° NNW 18:13:23 77° ENE 18:18:32 10° SSE
METEOR-M 4.0 18:09:09 10° SSE 18:14:28 82° ENE 18:19:50 10° NNW
USA 234 3.5 18:11:19 21° ENE 18:15:34 51° SE 18:21:52 10° SSW
MONITOR-E 4.0 18:12:40 10° SSE 18:15:40 63° ENE 18:18:42 10° N
CZ-4 R/B 4.5 18:11:35 10° S 18:15:45 82° WSW 18:19:56 10° NNW
Cosmos 968 Rocket 4.0 18:13:26 10° SSE 18:18:05 35° E 18:19:34 29° ENE
Cosmos 1503 Rocket 4.0 18:13:16 10° SSW 18:18:34 90° E 18:23:43 11° NNE
Cosmos 44 3.2 18:14:05 10° NNW 18:18:43 59° NE 18:22:42 15° SE
Cosmos 2082 Rocket 2.1 18:13:38 10° NNW 18:19:21 83° ENE 18:25:00 10° SSE
Meteor 2-6 Rocket 4.0 18:17:07 10° S 18:22:33 80° E 18:28:09 10° NNE
ERS-2 2.4 18:22:51 10° S 18:26:30 67° WSW 18:30:11 10° NNW
BREEZE-M DEB (TANK) 3.2 18:25:25 10° NW 18:27:38 30° NNE 18:27:38 30° NNE
Cosmos 1602 3.6 18:24:11 10° N 18:28:00 65° E 18:31:50 10° SSE
Okean 1-7 3.3 18:23:50 10° SSW 18:28:12 70° W 18:32:36 10° N
ALOS 2.1 18:27:29 10° SSE 18:32:08 74° ENE 18:36:49 10° N
DMSP B5D1-3 4.5 18:28:50 14° NNE 18:33:14 64° ESE 18:38:20 10° S
Cosmos 1782 4.0 18:30:17 10° SSW 18:34:08 44° WNW 18:37:59 10° N
Cosmos 405 Rocket 2.5 18:31:22 10° S 18:35:10 90° WSW 18:36:33 37° N
FengYun 1-2 T 4.3 18:39:44 23° SE 18:42:53 49° ENE 18:48:15 10° N
CZ-4C R/B 2.8 18:46:54 10° NNW 18:54:04 69° NE 18:58:04 32° SE
COSMO-SKYMED 1 3.7 18:51:02 10° N 18:55:08 42° WNW 18:59:12 10° SW
Meteor 1-27 Rocket 3.8 18:49:16 10° S 18:55:10 86° W 19:01:10 10° N
Meteor 1-5 Rocket 4.2 18:50:16 10° N 18:54:41 52° NE 18:54:41 52° NE
FENGYUN 3A 3.9 18:51:40 10° S 18:57:03 70° WSW 19:02:28 10° NNW
SPOT 3 Rocket 4.4 18:58:07 10° S 19:03:10 51° W 19:08:16 10° NNW
USA 229 DEB 3.7 18:58:28 10° SSW 19:04:59 54° ESE 19:05:14 54° ESE
USA 229 3.7 18:58:35 10° SSW 19:05:05 53° ESE 19:05:17 53° ESE
Cosmos 1833 Rocket 4.2 19:07:43 10° NW 19:12:46 35° WSW 19:17:48 10° SSW
Cosmos 2369 Rocket 3.9 19:09:41 10° S 19:11:27 20° SSE 19:11:27 20° SSE
Nadezhda 4 Rocket 4.1 19:09:26 10° NNW 19:15:33 72° W 19:21:37 10° S
Timation 2 Rocket 4.2 19:22:21 10° NNW 19:29:06 73° WSW 19:31:12 45° S
Cosmos 1092 Rocket 4.0 19:27:29 10° N 19:33:38 76° W 19:39:47 10° S
Thor Agena Rocket 4.4 19:36:31 44° SW 19:36:31 44° SW 19:40:06 10° SSW
Lacrosse 5 4.5 19:47:19 10° NNW 19:47:38 11° NNW 19:47:38 11° NNW
USA 234 3.8 19:58:41 51° NW 19:58:41 51° NW 20:04:50 10° WSW
CZ-4C R/B 4.4 20:36:11 10° NW 20:42:22 29° WSW 20:43:23 28° SW
